CCA1535 ZBAA-ZBAD

Flight info

Callsign CCA1535
Flight time 0h 16m
Altitude 4900
Route RUSDO
Aircraft A339/H-SADE1E2E3GHIJ1J3J5M1P2RWXY/LB1

Departure

Time 2026-05-05 12:11
Airport Beijing Capital International Airport (ZBAA)

Arrival

Time 2026-05-05 12:28
Airport Beijing Daxing International Airport (ZBAD)
Time Latitude Longitude Altitude Speed Heading
2026-05-05 11:55 40.05522 116.59483 131 ft 0 kts 263°
2026-05-05 11:56 40.05523 116.59486 131 ft 2 kts 263°
2026-05-05 11:56 40.05524 116.59506 131 ft 2 kts 263°
2026-05-05 11:57 40.05526 116.59526 131 ft 2 kts 263°
2026-05-05 11:57 40.05528 116.59546 131 ft 2 kts 267°
2026-05-05 11:57 40.05525 116.59565 131 ft 2 kts 304°
2026-05-05 11:57 40.05514 116.59579 131 ft 2 kts 333°
2026-05-05 11:58 40.05505 116.59583 131 ft 0 kts 353°
2026-05-05 11:58 40.05500 116.59584 131 ft 0 kts 354°
2026-05-05 12:00 40.05501 116.59584 131 ft 1 kts 353°
2026-05-05 12:00 40.05519 116.59581 131 ft 3 kts 353°
2026-05-05 12:01 40.05556 116.59574 131 ft 6 kts 353°
2026-05-05 12:01 40.05611 116.59565 131 ft 9 kts 353°
2026-05-05 12:01 40.05670 116.59556 131 ft 4 kts 353°
2026-05-05 12:01 40.05692 116.59568 131 ft 4 kts 46°
2026-05-05 12:02 40.05708 116.59619 131 ft 7 kts 83°
2026-05-05 12:02 40.05714 116.59694 131 ft 6 kts 84°
2026-05-05 12:02 40.05743 116.59740 131 ft 8 kts 17°
2026-05-05 12:02 40.05809 116.59736 131 ft 11 kts 352°
2026-05-05 12:03 40.05912 116.59718 131 ft 18 kts 354°
2026-05-05 12:03 40.06053 116.59696 131 ft 21 kts 353°
2026-05-05 12:03 40.06200 116.59673 131 ft 21 kts 353°
2026-05-05 12:03 40.06351 116.59650 131 ft 21 kts 353°
2026-05-05 12:04 40.06509 116.59624 131 ft 23 kts 353°
2026-05-05 12:04 40.06681 116.59598 131 ft 25 kts 353°
2026-05-05 12:04 40.06853 116.59571 131 ft 25 kts 353°
2026-05-05 12:04 40.07025 116.59544 131 ft 24 kts 353°
2026-05-05 12:05 40.07178 116.59521 131 ft 20 kts 353°
2026-05-05 12:05 40.07269 116.59506 131 ft 9 kts 353°
2026-05-05 12:05 40.07328 116.59496 131 ft 7 kts 349°
2026-05-05 12:05 40.07377 116.59464 131 ft 9 kts 330°
2026-05-05 12:06 40.07421 116.59430 131 ft 7 kts 339°
2026-05-05 12:06 40.07477 116.59416 131 ft 9 kts 353°
2026-05-05 12:06 40.07549 116.59405 131 ft 11 kts 353°
2026-05-05 12:06 40.07633 116.59392 131 ft 13 kts 353°
2026-05-05 12:07 40.07729 116.59377 131 ft 14 kts 353°
2026-05-05 12:07 40.07833 116.59360 131 ft 15 kts 353°
2026-05-05 12:07 40.07947 116.59343 131 ft 17 kts 353°
2026-05-05 12:07 40.08077 116.59322 131 ft 19 kts 353°
2026-05-05 12:08 40.08216 116.59301 131 ft 21 kts 354°
2026-05-05 12:08 40.08369 116.59277 131 ft 22 kts 353°
2026-05-05 12:08 40.08534 116.59251 131 ft 24 kts 353°
2026-05-05 12:08 40.08703 116.59225 131 ft 20 kts 353°
2026-05-05 12:09 40.08804 116.59209 131 ft 13 kts 353°
2026-05-05 12:09 40.08899 116.59194 131 ft 7 kts 353°
2026-05-05 12:09 40.08952 116.59207 131 ft 8 kts 31°
2026-05-05 12:09 40.08978 116.59252 131 ft 6 kts 78°
2026-05-05 12:10 40.08982 116.59322 131 ft 8 kts 96°
2026-05-05 12:10 40.08952 116.59398 131 ft 10 kts 128°
2026-05-05 12:10 40.08908 116.59471 131 ft 3 kts 129°
2026-05-05 12:10 40.08886 116.59489 131 ft 4 kts 163°
2026-05-05 12:11 40.08837 116.59498 131 ft 14 kts 174°
2026-05-05 12:11 40.08467 116.59555 131 ft 93 kts 173°
2026-05-05 12:11 40.07573 116.59695 134 ft 158 kts 173°
2026-05-05 12:11 40.06431 116.59874 746 ft 166 kts 174°
2026-05-05 12:12 40.05338 116.60053 1621 ft 159 kts 174°
2026-05-05 12:12 40.04287 116.60251 2469 ft 150 kts 174°
2026-05-05 12:12 40.03267 116.60484 3165 ft 148 kts 174°
2026-05-05 12:12 40.02262 116.60749 3707 ft 155 kts 174°
2026-05-05 12:13 40.01148 116.61043 4101 ft 174 kts 174°
2026-05-05 12:13 39.99885 116.61362 4563 ft 191 kts 174°
2026-05-05 12:13 39.98554 116.61694 4860 ft 195 kts 174°
2026-05-05 12:13 39.97206 116.62028 4908 ft 196 kts 174°
2026-05-05 12:14 39.95849 116.62247 4912 ft 196 kts 179°
2026-05-05 12:14 39.94477 116.62367 4914 ft 195 kts 180°
2026-05-05 12:14 39.93117 116.62484 4914 ft 194 kts 180°
2026-05-05 12:14 39.91763 116.62608 4913 ft 195 kts 180°
2026-05-05 12:15 39.90408 116.62739 4912 ft 194 kts 180°
2026-05-05 12:15 39.89043 116.62876 4916 ft 194 kts 179°
2026-05-05 12:15 39.87696 116.63013 4917 ft 195 kts 179°
2026-05-05 12:15 39.86329 116.63155 4917 ft 196 kts 179°
2026-05-05 12:16 39.84986 116.63293 4917 ft 196 kts 179°
2026-05-05 12:16 39.83609 116.63444 4918 ft 196 kts 177°
2026-05-05 12:16 39.82244 116.63651 4916 ft 196 kts 177°
2026-05-05 12:16 39.80887 116.63857 4916 ft 196 kts 177°
2026-05-05 12:17 39.79519 116.64049 4916 ft 195 kts 183°
2026-05-05 12:17 39.78262 116.63551 4908 ft 193 kts 218°
2026-05-05 12:17 39.77445 116.62158 4915 ft 198 kts 244°
2026-05-05 12:17 39.77246 116.60339 4823 ft 211 kts 272°
2026-05-05 12:18 39.77690 116.58452 4444 ft 228 kts 284°
2026-05-05 12:18 39.78279 116.56480 4042 ft 238 kts 284°
2026-05-05 12:18 39.78896 116.54428 3635 ft 248 kts 284°
2026-05-05 12:18 39.79530 116.52295 3234 ft 255 kts 284°
2026-05-05 12:19 39.80140 116.50112 2882 ft 257 kts 278°
2026-05-05 12:19 39.80211 116.47854 2567 ft 249 kts 258°
2026-05-05 12:19 39.79986 116.45596 2256 ft 252 kts 257°
2026-05-05 12:19 39.79748 116.43327 2087 ft 248 kts 258°
2026-05-05 12:20 39.79390 116.41193 2031 ft 234 kts 239°
2026-05-05 12:20 39.78363 116.39687 2017 ft 216 kts 208°
2026-05-05 12:20 39.76998 116.39024 2020 ft 205 kts 193°
2026-05-05 12:20 39.75609 116.38792 2014 ft 196 kts 182°
2026-05-05 12:21 39.74269 116.38858 2011 ft 186 kts 176°
2026-05-05 12:21 39.73028 116.39030 2008 ft 175 kts 175°
2026-05-05 12:21 39.71845 116.39220 2005 ft 165 kts 175°
2026-05-05 12:21 39.70735 116.39400 2001 ft 155 kts 175°
2026-05-05 12:22 39.69691 116.39568 2005 ft 144 kts 175°
2026-05-05 12:22 39.68720 116.39725 2018 ft 138 kts 175°
2026-05-05 12:22 39.67789 116.39873 2020 ft 130 kts 175°
2026-05-05 12:22 39.66895 116.40015 2013 ft 128 kts 176°
2026-05-05 12:23 39.65996 116.40157 2018 ft 129 kts 176°
2026-05-05 12:23 39.65104 116.40297 2019 ft 129 kts 176°
2026-05-05 12:23 39.64200 116.40439 2020 ft 129 kts 176°
2026-05-05 12:23 39.63310 116.40579 2018 ft 129 kts 176°
2026-05-05 12:24 39.62412 116.40721 2020 ft 129 kts 176°
2026-05-05 12:24 39.61505 116.40864 2017 ft 129 kts 176°
2026-05-05 12:24 39.60617 116.41004 2015 ft 129 kts 176°
2026-05-05 12:24 39.59711 116.41148 1897 ft 129 kts 176°
2026-05-05 12:25 39.58811 116.41290 1730 ft 128 kts 176°
2026-05-05 12:25 39.57926 116.41429 1566 ft 128 kts 175°
2026-05-05 12:25 39.57035 116.41569 1400 ft 128 kts 175°
2026-05-05 12:25 39.56147 116.41710 1238 ft 127 kts 175°
2026-05-05 12:26 39.55274 116.41848 1076 ft 127 kts 175°
2026-05-05 12:26 39.54388 116.41988 916 ft 127 kts 175°
2026-05-05 12:26 39.53515 116.42126 757 ft 126 kts 175°
2026-05-05 12:26 39.52639 116.42264 594 ft 126 kts 175°
2026-05-05 12:27 39.51762 116.42401 429 ft 125 kts 175°
2026-05-05 12:27 39.50907 116.42537 273 ft 124 kts 175°
2026-05-05 12:27 39.50051 116.42674 128 ft 122 kts 175°
2026-05-05 12:27 39.49232 116.42806 98 ft 104 kts 176°
2026-05-05 12:28 39.48813 116.42867 98 ft 30 kts 174°
2026-05-05 12:28 39.48642 116.42894 98 ft 15 kts 174°
2026-05-05 12:28 39.48533 116.42895 98 ft 15 kts 185°
2026-05-05 12:28 39.48445 116.42869 98 ft 12 kts 200°
2026-05-05 12:29 39.48370 116.42835 98 ft 6 kts 199°
2026-05-05 12:29 39.48329 116.42812 97 ft 6 kts 216°
2026-05-05 12:29 39.48310 116.42775 98 ft 4 kts 256°
2026-05-05 12:29 39.48320 116.42735 98 ft 5 kts 316°
2026-05-05 12:30 39.48367 116.42717 97 ft 8 kts 353°
2026-05-05 12:30 39.48443 116.42704 98 ft 12 kts 353°
2026-05-05 12:30 39.48546 116.42687 98 ft 16 kts 353°
2026-05-05 12:30 39.48671 116.42667 98 ft 19 kts 353°
2026-05-05 12:31 39.48811 116.42645 98 ft 20 kts 353°
2026-05-05 12:31 39.48956 116.42623 98 ft 21 kts 353°
2026-05-05 12:31 39.49103 116.42601 98 ft 21 kts 353°
2026-05-05 12:31 39.49252 116.42576 98 ft 21 kts 353°
2026-05-05 12:32 39.49340 116.42562 98 ft 8 kts 353°
2026-05-05 12:32 39.49396 116.42547 98 ft 8 kts 342°
2026-05-05 12:32 39.49455 116.42502 98 ft 10 kts 326°
2026-05-05 12:32 39.49518 116.42445 98 ft 9 kts 326°
2026-05-05 12:33 39.49560 116.42416 98 ft 8 kts 342°
2026-05-05 12:33 39.49625 116.42402 98 ft 10 kts 354°
2026-05-05 12:33 39.49707 116.42390 98 ft 12 kts 353°
2026-05-05 12:33 39.49801 116.42375 98 ft 14 kts 353°
2026-05-05 12:34 39.49905 116.42358 98 ft 15 kts 354°
2026-05-05 12:34 39.50015 116.42342 98 ft 15 kts 353°
2026-05-05 12:34 39.50115 116.42325 98 ft 13 kts 354°
2026-05-05 12:34 39.50174 116.42316 98 ft 5 kts 353°
2026-05-05 12:35 39.50200 116.42303 98 ft 5 kts 316°
2026-05-05 12:35 39.50212 116.42246 98 ft 7 kts 269°
2026-05-05 12:35 39.50205 116.42170 98 ft 9 kts 262°
2026-05-05 12:35 39.50194 116.42077 98 ft 11 kts 263°
2026-05-05 12:36 39.50185 116.41969 98 ft 12 kts 263°
2026-05-05 12:36 39.50174 116.41849 98 ft 14 kts 264°
2026-05-05 12:36 39.50162 116.41720 98 ft 15 kts 264°
2026-05-05 12:36 39.50151 116.41602 98 ft 10 kts 263°
2026-05-05 12:37 39.50144 116.41525 98 ft 2 kts 263°
2026-05-05 12:37 39.50147 116.41505 98 ft 2 kts 303°
2026-05-05 12:37 39.50173 116.41486 98 ft 6 kts 340°
2026-05-05 12:37 39.50223 116.41475 98 ft 9 kts 353°
2026-05-05 12:38 39.50290 116.41464 98 ft 7 kts 352°
2026-05-05 12:38 39.50319 116.41452 98 ft 3 kts 317°
2026-05-05 12:38 39.50326 116.41408 98 ft 6 kts 268°
2026-05-05 12:38 39.50323 116.41370 98 ft 3 kts 265°
2026-05-05 12:39 39.50319 116.41329 98 ft 5 kts 262°
2026-05-05 12:39 39.50314 116.41280 98 ft 3 kts 262°
2026-05-05 12:39 39.50315 116.41254 98 ft 2 kts 283°
2026-05-05 12:39 39.50322 116.41246 98 ft 2 kts 325°
2026-05-05 12:40 39.50342 116.41239 98 ft 5 kts 352°
2026-05-05 12:40 39.50360 116.41236 98 ft 4 kts 353°
2026-05-05 12:40 39.50383 116.41232 98 ft 3 kts 353°
2026-05-05 12:40 39.50397 116.41230 98 ft 3 kts 353°
2026-05-05 12:41 39.50406 116.41228 98 ft 1 kts 353°
2026-05-05 12:41 39.50409 116.41228 98 ft 0 kts 353°
2026-05-05 12:41 39.50411 116.41228 98 ft 0 kts 353°